K9JWM Weather Reports


Display with metric or nautical units.
time (UTC)temp
F
wind
direction
speed
MPH
gust
MPH
rain 1hr
in
rain 24hr
in
rain mn
in
humidity
%
barometer
mb
20260906182526 80 221 2.0 3.0 0.00 0.00 0.00 54 1017.9
20260906182004 81 200 2.0 6.0 0.00 0.00 0.00 51 1017.9
20260906181026 82 105 6.0 5.0 0.00 0.00 0.00 51 1017.9
20260906181004 82 105 5.0 8.0 0.00 0.00 0.00 51 1017.9
20260906180005 80 120 1.0 6.0 0.00 0.00 0.00 53 1018.0
20260906175525 79 256 1.0 3.0 0.00 0.00 0.00 55 1018.1
20260906175005 79 250 1.0 8.0 0.00 0.00 0.00 54 1018.3
20260906174025 79 191 1.0 2.0 0.00 0.00 0.00 56 1018.4
20260906174004 79 191 1.0 5.0 0.00 0.00 0.00 56 1018.4
20260906172525 78 216 1.0 1.0 0.00 0.00 0.00 57 1018.6
20260906171026 78 232 7.0 9.0 0.00 0.00 0.00 59 1018.7
20260906171004 78 232 6.0 9.0 0.00 0.00 0.00 59 1018.7
20260906170004 77 246 4.0 9.0 0.00 0.00 0.00 58 1019.0
20260906165526 78 233 5.0 9.0 0.00 0.00 0.00 59 1019.0
20260906165004 77 173 1.0 5.0 0.00 0.00 0.00 60 1018.9
20260906164025 76 210 3.0 3.0 0.00 0.00 0.00 59 1018.9
20260906164004 76 210 4.0 7.0 0.00 0.00 0.00 59 1018.9
20260906163004 76 234 5.0 12.0 0.00 0.00 0.00 63 1018.9
20260906162525 75 237 5.0 7.0 0.00 0.00 0.00 65 1018.9
20260906162005 75 231 5.0 7.0 0.00 0.00 0.00 64 1018.9
20260906161025 75 219 3.0 3.0 0.00 0.00 0.00 65 1019.0
20260906161005 75 219 4.0 8.0 0.00 0.00 0.00 65 1019.0
20260906160004 75 246 3.0 6.0 0.00 0.00 0.00 66 1019.0
20260906155526 74 197 2.0 3.0 0.00 0.00 0.00 64 1019.0
20260906155011 74 235 4.0 8.0 0.00 0.00 0.00 65 1019.1
20260906154024 74 179 1.0 2.0 0.00 0.00 0.00 64 1019.2
20260906154005 74 179 2.0 7.0 0.00 0.00 0.00 64 1019.2
20260906153004 73 189 2.0 6.0 0.00 0.00 0.00 66 1019.2
20260906152525 73 203 2.0 2.0 0.00 0.00 0.00 66 1019.4
20260906152004 72 238 6.0 8.0 0.00 0.00 0.00 68 1019.4
20260906151025 72 228 1.0 3.0 0.00 0.00 0.00 70 1019.6
20260906151004 72 228 1.0 5.0 0.00 0.00 0.00 70 1019.6
20260906145525 71 233 3.0 3.0 0.00 0.00 0.00 72 1019.7
20260906145006 71 241 4.0 7.0 0.00 0.00 0.00 75 1019.6
20260906144026 71 239 3.0 6.0 0.00 0.00 0.00 75 1019.4
20260906144004 71 239 3.0 8.0 0.00 0.00 0.00 75 1019.4
20260906143004 70 238 5.0 9.0 0.00 0.00 0.00 77 1019.2
20260906142525 70 242 5.0 7.0 0.00 0.00 0.00 78 1019.2
20260906142004 70 227 2.0 6.0 0.00 0.00 0.00 81 1019.3
20260906141026 69 216 1.0 3.0 0.00 0.00 0.00 83 1019.3
20260906141007 69 216 1.0 6.0 0.00 0.00 0.00 83 1019.3
20260906140004 68 228 3.0 6.0 0.00 0.00 0.00 87 1019.4
20260906135525 68 229 2.0 3.0 0.00 0.00 0.00 88 1019.3
20260906135004 68 224 1.0 5.0 0.00 0.00 0.00 89 1019.3
20260906134026 67 231 1.0 5.0 0.00 0.00 0.00 90 1019.5
20260906134004 67 231 1.0 5.0 0.00 0.00 0.00 90 1019.5
20260906133004 67 248 2.0 3.0 0.00 0.00 0.00 91 1019.6
20260906132526 66 175 0.0 0.0 0.00 0.00 0.00 92 1019.6
20260906132004 66 175 1.0 3.0 0.00 0.00 0.00 93 1019.7
20260906131025 65 177 0.0 0.0 0.00 0.00 0.00 93 1019.6
20260906131004 65 177 0.0 2.0 0.00 0.00 0.00 93 1019.6
20260906130004 63 173 1.0 3.0 0.00 0.00 0.00 94 1019.6
20260906125526 63 166 0.0 2.0 0.00 0.00 0.00 94 1019.6
20260906125004 63 160 0.0 2.0 0.00 0.00 0.00 94 1019.6
20260906124024 62 190 0.0 1.0 0.00 0.00 0.00 94 1019.6
20260906122525 62 192 0.0 1.0 0.00 0.00 0.00 94 1019.7
20260906122008 62 192 0.0 2.0 0.00 0.00 0.00 94 1019.6
20260906121025 61 192 0.0 0.0 0.00 0.00 0.00 94 1019.5
20260906121007 61 192 0.0 0.0 0.00 0.00 0.00 94 1019.5
20260906120004 61 192 0.0 0.0 0.00 0.00 0.00 93 1019.1
20260906115525 61 192 0.0 0.0 0.00 0.00 0.00 93 1019.0
20260906115005 61 192 0.0 0.0 0.00 0.00 0.00 93 1019.0
20260906114025 62 192 0.0 0.0 0.00 0.00 0.00 94 1018.7
20260906114004 62 192 0.0 0.0 0.00 0.00 0.00 94 1018.7
20260906113004 61 192 0.0 2.0 0.00 0.00 0.00 94 1018.4
20260906112526 62 192 0.0 0.0 0.00 0.00 0.00 94 1018.5
20260906112004 62 192 0.0 2.0 0.00 0.00 0.00 94 1018.4
20260906111025 62 192 0.0 2.0 0.00 0.00 0.00 94 1018.2
20260906111005 62 192 0.0 2.0 0.00 0.00 0.00 94 1018.2
20260906110004 61 192 0.0 2.0 0.00 0.00 0.00 94 1018.2
20260906105526 61 192 0.0 2.0 0.00 0.00 0.00 94 1018.3
20260906105005 61 192 0.0 2.0 0.00 0.00 0.00 93 1018.3
20260906104026 61 191 0.0 0.0 0.00 0.00 0.00 94 1018.3
20260906104004 61 191 0.0 0.0 0.00 0.00 0.00 94 1018.3
20260906103004 61 191 0.0 0.0 0.00 0.00 0.00 94 1018.2
20260906102526 61 192 0.0 0.0 0.00 0.00 0.00 94 1018.1
20260906102004 61 191 0.0 0.0 0.00 0.00 0.00 93 1018.2
20260906101024 61 191 0.0 0.0 0.00 0.00 0.00 93 1018.2
20260906101005 61 191 0.0 1.0 0.00 0.00 0.00 93 1018.2
20260906100004 60 192 0.0 2.0 0.00 0.00 0.00 94 1018.2
20260906095535 60 229 0.0 1.0 0.00 0.00 0.00 93 1018.2
20260906095006 60 267 0.0 0.0 0.00 0.00 0.00 92 1018.2
20260906094026 61 267 0.0 0.0 0.00 0.00 0.00 92 1018.2
20260906094004 61 267 0.0 0.0 0.00 0.00 0.00 92 1018.2
20260906093004 61 267 0.0 0.0 0.00 0.00 0.00 92 1018.4
20260906092524 61 267 0.0 0.0 0.00 0.00 0.00 92 1018.3
20260906092004 61 267 0.0 0.0 0.00 0.00 0.00 92 1018.3
20260906091024 61 267 0.0 0.0 0.00 0.00 0.00 92 1018.3
20260906090004 61 267 0.0 2.0 0.00 0.00 0.00 92 1018.2
20260906085526 61 267 0.0 1.0 0.00 0.00 0.00 92 1018.2
20260906085007 61 273 0.0 2.0 0.00 0.00 0.00 92 1018.1
20260906084025 61 299 0.0 0.0 0.00 0.00 0.00 93 1018.4
20260906084004 61 299 0.0 0.0 0.00 0.00 0.00 93 1018.4
20260906083004 60 301 0.0 0.0 0.00 0.00 0.00 92 1017.9
20260906082525 60 302 0.0 0.0 0.00 0.00 0.00 92 1018.1
20260906082004 60 302 0.0 0.0 0.00 0.00 0.00 92 1018.1
20260906081025 61 302 0.0 0.0 0.00 0.00 0.00 92 1018.2
20260906075524 61 302 0.0 0.0 0.00 0.00 0.00 91 1018.0
20260906075004 62 302 0.0 0.0 0.00 0.00 0.00 91 1018.1
20260906074025 62 302 0.0 0.0 0.00 0.00 0.00 91 1018.1
20260906074004 62 302 0.0 0.0 0.00 0.00 0.00 91 1018.1
20260906072526 61 302 0.0 0.0 0.00 0.00 0.00 92 1018.0
20260906072004 61 302 0.0 0.0 0.00 0.00 0.00 92 1018.0
20260906071025 61 302 0.0 0.0 0.00 0.00 0.00 92 1017.8
20260906071004 61 302 0.0 0.0 0.00 0.00 0.00 92 1017.8
20260906070004 61 302 0.0 0.0 0.00 0.00 0.00 91 1017.8
20260906065525 61 302 0.0 0.0 0.00 0.00 0.00 92 1018.0
20260906064024 61 302 0.0 0.0 0.00 0.00 0.00 91 1018.1
20260906064004 61 302 0.0 0.0 0.00 0.00 0.00 91 1018.1
20260906063004 61 302 0.0 0.0 0.00 0.00 0.00 91 1018.4
20260906062524 61 302 0.0 0.0 0.00 0.00 0.00 91 1018.3
20260906062005 61 302 0.0 0.0 0.00 0.00 0.00 91 1018.2
20260906061024 61 302 0.0 0.0 0.00 0.00 0.00 91 1018.2
20260906061004 61 302 0.0 0.0 0.00 0.00 0.00 91 1018.2
20260906060004 62 302 0.0 0.0 0.00 0.00 0.00 90 1018.0
20260906055525 62 302 0.0 0.0 0.00 0.00 0.00 89 1018.0
20260906055004 63 302 0.0 2.0 0.00 0.00 0.00 90 1017.9
20260906054025 62 306 0.0 0.0 0.00 0.00 0.00 90 1017.7
20260906052524 62 306 0.0 0.0 0.00 0.00 0.00 89 1017.5
20260906052004 62 306 0.0 0.0 0.00 0.00 0.00 89 1017.5
20260906051025 63 306 0.0 0.0 0.00 0.00 0.00 89 1017.5
20260906050003 63 306 0.0 0.0 0.00 0.00 0.00 89 1017.6
20260906045526 63 306 0.0 0.0 0.00 0.01 0.01 89 1017.7
20260906045004 63 306 0.0 0.0 0.00 0.01 0.01 88 1017.7
20260906044026 63 306 0.0 0.0 0.00 0.01 0.01 88 1017.7
20260906043004 63 306 0.0 2.0 0.00 0.01 0.01 88 1017.7
20260906042526 64 306 0.0 0.0 0.00 0.01 0.01 87 1017.7
20260906042003 64 306 0.0 3.0 0.00 0.01 0.01 87 1017.5
20260906041024 64 13 0.0 2.0 0.00 0.01 0.01 86 1017.6
20260906041003 64 13 0.0 2.0 0.00 0.01 0.01 86 1017.6
20260906040004 64 40 0.0 2.0 0.00 0.01 0.01 86 1017.3
20260906035524 64 40 0.0 0.0 0.00 0.01 0.01 86 1017.3
20260906035004 64 40 0.0 2.0 0.00 0.01 0.01 86 1017.3
20260906034024 64 47 0.0 2.0 0.00 0.01 0.01 86 1017.2
20260906034004 64 47 0.0 2.0 0.00 0.01 0.01 86 1017.2
20260906033003 64 47 0.0 2.0 0.00 0.01 0.01 85 1016.8
20260906032524 64 48 0.0 1.0 0.00 0.01 0.01 85 1016.7
20260906031024 64 49 0.0 1.0 0.00 0.01 0.01 85 1016.7
20260906031011 64 49 0.0 5.0 0.00 0.01 0.01 85 1016.7
20260906025524 64 44 0.0 2.0 0.00 0.01 0.01 86 1016.7
20260906025004 64 55 0.0 0.0 0.00 0.01 0.01 85 1016.7
20260906024025 64 55 0.0 0.0 0.00 0.01 0.01 85 1016.6
20260906024004 64 55 0.0 2.0 0.00 0.01 0.01 85 1016.6
20260906022525 64 55 0.0 0.0 0.00 0.01 0.01 85 1016.5
20260906022007 65 55 0.0 2.0 0.00 0.01 0.01 85 1016.3
20260906021026 65 55 0.0 1.0 0.00 0.01 0.01 85 1016.4
20260906021004 65 55 0.0 2.0 0.00 0.01 0.01 85 1016.4
20260906020004 65 51 0.0 2.0 0.00 0.01 0.01 85 1016.4
20260906015524 65 51 0.0 0.0 0.00 0.01 0.01 84 1016.4
20260906015004 65 51 0.0 2.0 0.00 0.01 0.01 84 1016.4
20260906014025 65 51 0.0 0.0 0.00 0.01 0.01 85 1016.3
20260906014004 65 51 0.0 0.0 0.00 0.01 0.01 85 1016.3
20260906013003 65 51 0.0 2.0 0.00 0.01 0.01 84 1016.3
20260906012413 66 51 0.0 0.0 0.00 0.01 0.01 83 1016.3
20260906012007 66 51 0.0 2.0 0.00 0.01 0.01 83 1016.4
20260906011007 66 53 0.0 1.0 0.00 0.01 0.01 82 1016.3
20260906010911 66 53 0.0 0.0 0.00 0.01 0.01 82 1016.2
20260906010004 67 53 0.0 2.0 0.00 0.01 0.01 82 1016.4
20260906005412 67 50 0.0 1.0 0.00 0.01 0.01 81 1016.4
20260906005003 68 61 0.0 3.0 0.00 0.01 0.01 80 1016.4
20260906004003 68 45 0.0 3.0 0.00 0.01 0.01 80 1016.4
20260906003911 68 33 0.0 1.0 0.00 0.01 0.01 79 1016.4
20260906003003 69 50 1.0 3.0 0.00 0.01 0.01 78 1016.3
20260906002422 70 71 0.0 2.0 0.00 0.01 0.01 76 1016.2
20260906001004 71 69 1.0 5.0 0.00 0.01 0.01 75 1016.2
20260906000912 71 24 1.0 2.0 0.00 0.01 0.01 74 1016.3
20260906000005 72 52 1.0 5.0 0.00 0.01 0.01 73 1016.4
20260905235520 73 58 2.0 3.0 0.00 0.01 0.01 72 1016.1
20260905235004 73 53 1.0 3.0 0.00 0.01 0.01 72 1016.0
20260905234004 74 46 1.0 7.0 0.00 0.01 0.01 72 1016.2
20260905233917 74 72 1.0 5.0 0.00 0.01 0.01 71 1016.2
20260905233005 74 32 1.0 5.0 0.00 0.01 0.01 72 1016.2
20260905232414 75 31 0.0 2.0 0.00 0.01 0.01 72 1016.1
20260905230913 75 122 1.0 1.0 0.00 0.01 0.01 72 1016.0
20260905230005 76 78 1.0 6.0 0.00 0.01 0.01 72 1016.1
20260905225413 77 63 2.0 3.0 0.00 0.01 0.01 72 1016.0
20260905225004 76 325 1.0 6.0 0.00 0.01 0.01 74 1016.0
20260905224004 77 62 1.0 5.0 0.00 0.01 0.01 72 1016.0
20260905223913 76 15 1.0 2.0 0.00 0.01 0.01 72 1016.0
20260905223004 77 3 1.0 7.0 0.00 0.01 0.01 73 1016.0
20260905222413 77 45 1.0 2.0 0.00 0.01 0.01 72 1016.1
20260905221011 77 48 1.0 7.0 0.00 0.01 0.01 72 1016.2
20260905220913 77 35 1.0 3.0 0.00 0.01 0.01 73 1016.1
20260905220004 77 71 2.0 7.0 0.00 0.01 0.01 72 1016.1
20260905215414 78 67 2.0 3.0 0.00 0.01 0.01 71 1016.0
20260905215008 78 55 1.0 5.0 0.00 0.01 0.01 71 1016.1
20260905214005 77 9 1.0 3.0 0.00 0.01 0.01 72 1016.2
20260905213913 77 353 0.0 2.0 0.00 0.01 0.01 72 1016.2
20260905213005 77 294 1.0 3.0 0.00 0.01 0.01 71 1016.4
20260905212412 77 289 1.0 3.0 0.00 0.01 0.01 70 1016.4
20260905212005 76 294 1.0 7.0 0.00 0.01 0.01 72 1016.3
20260905211004 76 289 2.0 5.0 0.00 0.01 0.01 71 1016.3
20260905210913 76 289 1.0 3.0 0.00 0.01 0.01 71 1016.3
20260905210004 76 258 1.0 5.0 0.00 0.01 0.01 72 1016.3
20260905205412 76 263 1.0 2.0 0.00 0.01 0.01 72 1016.4
20260905205004 77 129 0.0 6.0 0.00 0.01 0.01 74 1016.5
20260905203912 77 15 1.0 2.0 0.00 0.01 0.01 72 1016.9
20260905203004 78 68 3.0 10.0 0.00 0.01 0.01 72 1016.7
20260905202412 77 62 1.0 6.0 0.00 0.01 0.01 72 1016.8
20260905202012 77 272 1.0 6.0 0.00 0.01 0.01 70 1016.8
20260905201005 77 356 1.0 3.0 0.00 0.01 0.01 70 1016.8
20260905200914 77 261 1.0 1.0 0.00 0.01 0.01 70 1016.8
20260905200005 77 318 2.0 5.0 0.00 0.01 0.01 71 1016.9
20260905195413 76 258 2.0 5.0 0.00 0.01 0.01 74 1016.9
20260905195005 75 242 3.0 6.0 0.00 0.01 0.01 74 1016.8
20260905194008 75 259 1.0 3.0 0.00 0.01 0.01 75 1016.7
20260905193912 75 245 1.0 3.0 0.00 0.01 0.01 76 1016.7
20260905192418 76 278 3.0 6.0 0.00 0.01 0.01 74 1016.6
20260905192004 75 327 1.0 7.0 0.00 0.01 0.01 73 1016.6
20260905191004 75 268 1.0 7.0 0.00 0.01 0.01 75 1016.6
20260905190913 75 255 0.0 5.0 0.00 0.01 0.01 73 1016.6
20260905190004 75 217 1.0 3.0 0.00 0.01 0.01 73 1016.6
20260905185420 74 217 2.0 3.0 0.00 0.01 0.01 76 1016.9
20260905185004 74 213 1.0 5.0 0.00 0.01 0.01 73 1017.0
20260905184012 74 243 0.0 3.0 0.00 0.01 0.01 74 1017.0
20260905183917 74 243 0.0 2.0 0.00 0.01 0.01 74 1017.0